Location: Ammerl�gen
(47.2167°N, 9.6000°E)
Time: 05:20:38
(UTC+00:00)

Timation 2 Rocket - Pass Details

Date: 21 April 2021
Orbit: 907 x 1074 km, 70.0° (Epoch: 15 May)

Event Time Altitude Azimuth Distance (km) Brightness Sun altitude
Rises 19:48:14 0° 191° (S) 3,781 6.8 -14.2°
Reaches altitude 10° 19:50:55 10° 187° (S) 2,811 6.1 -14.6°
Maximum altitude 19:57:16 55° 112° (ESE) 1,184 4.1 -15.4°
Drops below altitude 10° 20:03:25 10° 36° (NE) 2,713 6.4 -16.2°
Sets 20:05:57 0° 32° (NNE) 3,639 7.1 -16.6°
